Location: Mouss�
(47.9236°N, 1.2701°W)
Time: 08:48:50
(UTC+00:00)

CZ-4B R/B - Pass Details

Date: 03 March 2021
Orbit: 388 x 455 km, 97.6° (Epoch: 13 April)

Event Time Altitude Azimuth Distance (km) Brightness Sun altitude
Rises 18:40:02 0° 8° (N) 2,294 4.9 -8.7°
Reaches altitude 10° 18:42:02 10° 4° (N) 1,435 3.9 -9.0°
Maximum altitude 18:45:00 51° 287° (WNW) 504 2.1 -9.5°
Drops below altitude 10° 18:47:59 10° 210° (SSW) 1,438 4.4 -10.0°
Sets 18:49:59 0° 205° (SSW) 2,300 5.3 -10.4°
